Simultaneous Nadir Overpasses (SNOs) Predictions

Prediction of SNOs between GOES-17 and NOAA-20 Satellite Orbit:

Table of predicted SNOs for the next 14.0 days since TLE Epoch: 5/21/2022
Index Date Time (GOES-17) GOES-17 Lat,Lon NOAA-20 Lat,Lon Distance(km) Time Diff (sec)
1 05/21/2022 22:22:10 0.01,-137.17 0.60,-134.61 293.02 80
2 05/23/2022 10:46:37 -0.00,-137.16 0.57,-139.88 308.35 80
3 05/24/2022 10:25:12 -0.01,-137.16 -0.41,-135.34 207.15 80
4 05/25/2022 22:49:48 0.00,-137.14 -0.77,-140.64 399.10 80
5 05/26/2022 22:31:02 0.00,-137.13 0.21,-136.11 116.27 80
6 05/28/2022 10:52:50 -0.00,-137.12 0.96,-141.38 485.69 80
7 05/29/2022 10:31:25 -0.01,-137.10 -0.09,-136.85 29.26 80
8 05/31/2022 22:34:36 0.01,-137.06 -0.09,-137.63 64.03 80
9 06/01/2022 22:18:31 0.01,-137.04 0.90,-133.09 450.44 80
10 06/03/2022 10:40:17 -0.00,-137.01 0.32,-138.35 152.99 80
